SCP
-0 -0 -0 -0 -0 -0 -0 -0 -0 -0 -0 -0 -0 -0 -0 -0 -0 -0 -0 -0 -0 -0 -0 -0 -0 -0 0 -0 0 -0 -0 -0 0 0 0 0 -0 0 0 0 -0 -0 -0 0 0 0 0
-0 -0 -0 -0 -0 -0 -0 -0 -0 -0 -0 -0 -0 -0 -0 -0 -0 -0 -0 -0 -0 -0 -0 -0 -0 -0 -0 0 -0 -0 -0 -0 0 0 0 -0 -0 0 0 0 -0 -0 0 0 0 -0 0
-0 -0 -0 -0 -0 -0 -0 -0 -0 -0 -0 -0 -0 -0 -0 -0 -0 -0 -0 -0 -0 -0 -0 -0 0 0 0 -0 0 -0 -0 0 0 -0 -0 -0 -0 -0 -0 0 0 -0 -0 0 0 0 0
-0 -0 -0 -0 -0 -0 -0 -0 -0 -0 -0 -0 -0 -0 -0 -0 0 -0 -0 -0 -0 -0 -0 0 0 0 0 0 -0 -0 0 -0 -0 -0 0 -0 -0 -0 0 0 0 0 0 0 0 0 0
-0 -0 -0 -0 -0 -0 -0 -0 -0 -0 -0 -0 -0 -0 -0 0 0 0 0 -0 -0 -0 0 0 0 0 0 0 0 0 -0 -0 -0 0 0 0 -0 0 -0 0 0 0 -0 0 0 0 0
-0 -0 -0 -0 -0 -0 -0 -0 0 -0 -0 -0 -0 -0 -0 0 0 0 0 -0 0 0 0 0 0 0 0 0 0 -0 -0 -0 -0 -0 0 0 0 0 0 0 0 0 0 -0 0 0 0
-0 -0 -0 -0 -0 -0 -0 -0 -0 -0 -0 0 -0 -0 0 0 0 0 0 0 0 0 0 0 0 0 -0 0 -0 -0 -0 -0 -0 0 0 -0 0 0 -0 0 -0 0 0 0 -0 0 0
-0 -0 -0 -0 -0 -0 -0 -0 -0 -0 -0 0 0 0 0 0 0 0 0 0 0 0 0 -0 -0 -0 -0 -0 -0 -0 -0 -0 0 -0 -0 0 -0 -0 -0 0 0 0 0 -0 0 0 0
-0 -0 -0 -0 -0 -0 -0 -0 -0 -0 -0 0 0 0 0 0 0 0 0 0 0 -0 0 0 -0 -0 0 0 0 -0 -0 -0 0 0 -0 -0 -0 -0 0 -0 -0 -0 -0 -0 0 -0 0
-0 -0 -0 -0 -0 -0 -0 -0 -0 -0 -0 0 0 0 0 0 0 0 0 0 -0 -0 0 0 -0 -0 -0 0 -0 -0 -0 -0 0 0 0 0 -0 0 -0 -0 -0 -0 -0 -0 -0 0 0
-0 -0 -0 -0 -0 -0 -0 -0 -0 -0 -0 0 0 0 0 0 0 0 0 0 0 0 0 -0 -0 -0 -0 -0 0 0 -0 0 -0 0 0 -0 -0 -0 0 0 -0 -0 -0 -0 -0 -0 0
-0 -0 -0 -0 -0 -0 -0 -0 -0 -0 -0 -0 0 0 0 0 0 0 0 0 0 0 -0 -0 -0 -0 0 -0 -0 -0 -0 0 -0 0 0 -0 0 -0 -0 -0 -0 -0 0 -0 -0 0 -0
-0 -0 -0 -0 -0 -0 -0 -0 -0 -0 -0 -0 0 0 0 0 0 0 0 0 0 0 -0 -0 -0 -0 0 -0 -0 -0 -0 -0 -0 0 0 0 -0 0 -0 0 -0 -0 0 0 0 0 0
-0 -0 -0 -0 -0 -0 -0 -0 -0 -0 -0 0 0 0 0 0 0 0 0 0 0 0 0 0 0 -0 -0 -0 -0 -0 0 0 -0 0 0 0 0 -0 -0 0 -0 0 0 -0 0 0 0
-0 -0 -0 -0 -0 -0 -0 -0 -0 -0 -0 0 0 0 0 0 0 0 0 0 0 0 0 0 0 -0 0 0 -0 -0 -0 -0 -0 0 0 0 0 -0 0 0 0 0 0 -0 0 0 0
-0 -0 -0 -0 -0 -0 -0 -0 -0 -0 -0 0 0 0 0 0 0 0 0 0 0 0 -0 0 0 -0 -0 0 0 -0 -0 0 0 0 0 0 0 -0 0 -0 -0 0 -0 0 0 -0 0
-0 -0 -0 -0 -0 -0 -0 -0 -0 -0 -0 0 0 0 0 0 0 0 0 0 0 -0 0 0 0 0 0 0 0 0 0 0 0 0 0 0 0 0 0 0 0 0 0 0 -0 0 -0
-0 -0 -0 -0 -0 -0 -0 -0 -0 -0 -0 -0 0 0 0 -0 0 0 0 0 -0 0 -0 0 0 0 -0 -0 0 0 0 0 0 0 0 0 0 0 0 -0 0 -0 -0 0 0 -0 0
-0 -0 -0 -0 -0 -0 -0 -0 -0 -0 -0 0 0 0 0 -0 0 0 0 0 0 0 0 0 0 0 0 0 0 0 0 0 0 0 0 0 0 0 0 0 0 0 0 0 0 0 0
-0 -0 -0 -0 -0 -0 -0 -0 -0 -0 -0 0 0 0 0 0 0 0 0 0 0 0 0 0 0 0 0 0 0 0 0 0 0 -0 -0 0 0 0 0 0 -0 0 0 0 0 0 0
-0 -0 -0 -0 -0 -0 -0 -0 -0 -0 -0 0 0 0 0 0 0 0 0 0 0 0 0 0 0 0 0 0 0 0 0 0 0 0 -0 0 0 0 0 0 0 0 0 0 0 0 0
-0 -0 -0 -0 -0 -0 -0 -0 -0 -0 -0 0 0 0 0 0 0 0 0 0 0 0 0 0 0 0 0 0 0 0 0 0 0 -0 0 0 0 0 0 0 0 0 0 0 0 0 0
-0 -0 -0 -0 -0 -0 -0 -0 -0 -0 -0 0 0 0 0 0 0 0 0 0 0 0 0 0 0 0 0 0 0 0 0 0 0 0 0 0 0 0 0 0 0 0 0 0 0 0 0
0 -0 -0 -0 -0 -0 -0 -0 -0 -0 -0 0 0 0 0 0 0 0 0 0 0 0 0 0 0 0 0 0 0 0 0 0 0 0 0 0 0 0 0 0 0 0 0 0 0 0 0
0 -0 -0 -0 -0 -0 -0 -0 -0 -0 -0 0 0 0 0 0 0 0 0 0 0 0 0 0 0 0 0 0 0 0 0 0 -0 0 0 0 0 0 0 0 0 0 0 0 0 0 0
0 -0 -0 -0 -0 -0 -0 -0 -0 -0 -0 0 0 0 0 0 0 0 0 0 0 0 0 0 0 0 0 0 0 0 0 0 0 0 0 0 0 0 0 0 0 0 0 0 0 0 0
-0 -0 -0 -0 -0 -0 -0 -0 -0 -0 -0 0 0 0 0 0 0 0 0 0 0 0 0 0 0 0 0 0 0 0 0 0 0 0 0 0 0 0 0 0 0 0 0 0 0 0 0
0 0 -0 -0 -0 -0 -0 -0 -0 -0 -0 0 0 0 0 0 0 0 0 0 0 0 0 0 0 0 0 0 0 0 0 0 0 0 0 0 0 0 0 0 0 0 0 0 0 0 0
0 0 0 0 0 -0 -0 -0 -0 -0 -0 -0 0 0 0 0 0 0 0 0 0 0 0 0 0 0 0 0 0 0 0 0 0 0 0 0 0 0 0 0 0 0 0 0 0 0 0
Wind_Speed_500mb
34 34 34 32 31 29 27 25 24 22 22 20 19 18 19 18 19 18 17 17 17 17 17 18 17 17 15 12 31 14 10 9 14 15 22 32 52 30 17 17 23 16 6 11 15 19 16
34 34 34 34 33 32 31 29 27 25 22 21 20 20 19 20 19 18 17 16 16 15 15 15 14 14 12 12 4 5 1 7 12 12 17 25 43 36 23 31 8 7 5 5 7 6 7
35 35 35 35 34 34 33 31 29 28 26 23 22 20 20 18 19 17 16 15 14 12 11 11 10 12 19 36 6 3 8 16 10 12 31 32 29 23 42 17 10 20 13 11 7 2 5
37 36 35 36 36 36 36 34 32 29 27 25 23 21 19 17 16 16 14 12 11 10 9 8 8 10 18 9 23 27 17 18 16 22 24 19 20 26 33 39 23 16 12 10 12 11 7
37 37 37 37 38 38 38 37 35 32 29 27 25 22 19 16 16 14 12 9 8 8 8 8 4 11 20 10 26 31 19 21 16 11 15 17 13 27 45 16 15 13 8 6 10 17 8
38 38 39 39 40 40 40 40 39 37 32 29 26 22 18 15 14 13 10 9 8 8 8 10 15 17 20 23 18 17 21 23 24 18 25 20 18 12 14 7 12 8 9 17 6 14 11
40 40 40 41 41 43 43 42 41 39 36 31 27 21 17 14 14 13 13 9 4 5 20 24 12 12 12 10 14 21 22 14 13 21 10 32 8 16 28 21 4 12 9 10 11 10 9
42 41 41 42 43 44 45 45 43 41 38 33 26 21 16 15 15 16 19 14 7 22 19 36 24 36 28 12 15 18 22 19 23 16 22 11 21 29 25 13 12 12 13 14 15 6 8
42 42 42 43 44 46 47 47 46 42 40 33 23 19 12 12 13 16 23 30 7 19 9 24 54 35 19 15 29 38 37 28 21 16 20 17 22 18 7 17 13 12 15 13 14 7 13
43 42 42 44 46 48 49 48 48 44 41 31 20 15 8 11 10 9 16 4 4 10 7 8 18 19 34 22 19 31 37 26 16 20 18 16 24 12 10 5 10 17 14 10 3 5 9
43 43 43 45 49 51 51 50 49 45 40 25 18 11 10 22 9 18 10 10 4 8 6 27 23 16 29 26 9 29 31 18 20 21 8 23 14 10 6 12 13 18 12 9 6 13 12
43 43 44 47 51 53 54 53 50 47 34 20 15 10 15 27 13 9 10 6 9 2 12 20 17 15 13 27 29 24 12 16 28 17 23 16 26 7 12 15 8 11 12 15 8 12 11
43 44 46 48 52 55 57 55 51 45 26 18 11 10 20 32 19 12 3 9 3 8 19 24 15 19 18 19 24 17 13 14 13 7 15 20 23 15 10 6 17 9 6 6 9 7 15
46 46 47 49 53 57 60 58 54 37 22 11 11 11 24 39 18 15 9 2 7 22 13 19 22 22 21 22 18 17 17 16 23 21 12 8 10 21 16 13 14 16 15 9 2 9 14
48 48 49 51 55 58 62 61 55 31 17 9 4 8 20 36 15 12 6 6 7 10 26 16 30 21 20 19 14 16 22 22 20 6 9 14 8 14 13 3 6 12 6 11 4 8 10
50 51 51 52 55 59 64 65 53 29 13 3 5 4 10 24 19 12 5 8 10 16 22 26 5 18 10 7 12 14 15 4 13 14 13 14 12 12 16 5 9 8 7 13 9 5 9
51 52 53 54 57 60 64 66 53 30 13 6 11 7 22 23 20 12 7 12 22 50 14 14 23 16 21 13 20 4 16 25 18 16 18 17 11 20 13 6 8 9 6 5 4 6 3
50 52 54 56 57 60 63 65 58 34 16 10 9 6 28 33 16 12 11 12 10 17 6 9 12 12 17 30 19 2 13 11 25 29 8 10 4 11 20 24 15 13 8 13 10 13 5
48 50 52 55 58 59 62 62 60 39 23 12 9 15 24 31 7 14 23 34 30 11 11 8 9 13 15 16 10 21 12 20 19 10 6 11 7 9 22 16 24 14 18 16 12 8 5
47 48 49 52 56 58 60 60 58 39 29 15 7 3 17 31 36 24 26 25 9 9 13 20 12 19 15 13 4 2 10 10 30 20 13 4 3 8 11 15 10 18 23 19 10 7 7
46 47 47 49 51 55 57 59 56 34 19 19 4 9 19 8 16 23 29 17 10 10 12 14 15 8 15 11 17 15 20 17 21 17 8 5 3 9 16 20 16 19 23 19 11 11 4
46 45 46 45 46 49 52 56 56 45 25 25 18 15 21 23 36 3 9 10 19 20 8 12 13 17 16 15 14 17 15 17 8 13 7 7 6 15 14 21 21 18 18 13 11 11 10
45 44 43 42 42 43 45 47 53 50 33 16 39 14 13 23 20 8 11 6 14 21 19 21 21 14 23 19 28 23 17 20 18 10 5 4 4 8 9 16 20 14 9 13 14 16 14
44 42 40 40 38 39 39 39 41 46 39 30 39 15 12 9 17 12 17 25 26 20 10 23 14 11 12 21 24 21 24 27 26 23 15 1 2 6 9 11 8 5 26 16 14 25 22
44 41 37 36 36 35 34 34 32 32 31 23 37 22 13 8 31 27 33 26 23 12 8 12 15 16 16 17 6 7 7 8 16 18 13 6 5 3 3 6 15 9 15 14 12 14 19
43 40 36 34 33 31 30 29 29 29 29 11 24 39 7 15 14 25 26 32 8 11 8 13 16 13 3 3 4 7 6 10 3 12 15 8 9 9 1 2 5 8 19 28 21 3 20
41 38 36 33 32 29 27 26 26 25 23 17 23 40 14 10 23 26 16 13 13 17 7 15 5 2 11 2 5 7 10 4 4 4 6 5 1 6 4 8 1 10 20 20 3 5 18
40 37 34 32 29 26 25 24 24 23 21 15 16 24 34 14 20 14 16 20 20 17 7 14 11 4 6 2 4 7 5 5 7 8 5 3 2 4 3 4 1 17 11 5 5 19 22
39 36 33 31 27 25 23 22 23 22 20 18 16 14 21 14 21 19 13 16 10 5 14 20 12 10 8 6 9 8 7 10 12 5 9 3 6 6 8 6 1 21 30 18 12 17 24
Wind_Direction_500mb
22 21 18 16 10 6 2 357 348 340 329 319 309 299 295 288 283 281 280 280 280 283 286 287 289 289 291 293 267 257 284 275 262 277 286 309 308 340 357 352 97 89 148 189 187 187 145
18 17 15 12 10 6 1 357 350 343 335 325 316 307 296 287 282 279 277 275 275 278 281 281 283 283 278 256 160 257 300 312 244 279 279 296 305 327 316 332 31 112 281 118 26 9 117
14 13 11 9 6 4 1 355 349 342 336 327 319 310 300 290 281 276 272 269 269 270 271 270 273 271 253 236 154 238 281 257 260 228 270 304 354 332 318 315 41 268 191 236 132 149 110
10 9 7 4 2 0 359 356 350 343 335 329 321 310 300 291 280 271 266 261 260 259 255 250 254 275 255 266 223 244 236 237 246 254 268 302 336 315 298 296 298 259 283 167 176 211 161
7 5 3 1 359 357 355 353 350 344 336 328 320 310 299 285 273 264 257 248 240 233 228 222 213 275 269 252 220 219 211 224 207 239 258 274 316 283 284 279 286 253 231 281 154 170 184
4 2 359 357 355 353 352 350 349 344 338 330 321 309 297 278 263 252 237 221 220 210 211 232 212 289 239 242 217 184 194 225 234 216 229 227 239 239 276 257 252 45 100 253 121 199 124
0 359 357 354 352 350 348 348 347 343 338 331 321 309 294 271 250 235 219 190 235 228 216 208 260 237 118 104 147 183 191 215 246 257 240 222 197 242 250 252 286 32 339 321 297 182 144
358 357 355 352 351 348 346 345 345 342 337 331 321 310 290 258 237 225 217 214 8 339 283 253 232 257 283 157 177 195 191 209 221 241 238 272 222 242 256 301 52 35 315 294 275 201 156
356 355 354 352 350 347 345 343 342 341 336 329 320 312 284 240 227 232 235 215 351 22 277 261 222 231 222 225 247 191 185 213 252 245 249 227 251 249 19 330 360 285 229 254 258 354 326
355 355 354 353 350 348 346 343 341 340 334 326 318 306 262 196 186 212 261 60 347 22 308 176 193 232 221 212 249 239 182 201 234 244 267 241 269 263 179 219 235 266 272 205 315 32 262
356 356 356 354 352 350 347 344 341 338 332 321 313 288 221 178 178 170 32 7 339 261 306 142 181 218 183 188 134 154 178 198 257 277 276 265 246 241 287 266 254 245 356 2 321 301 334
360 359 359 356 354 352 348 345 341 337 330 318 302 264 208 188 191 95 125 348 180 274 243 168 140 177 168 219 253 141 166 226 265 275 290 251 277 287 215 248 211 292 319 314 329 39 335
4 3 1 358 357 354 350 346 342 338 330 316 288 248 206 184 155 202 293 256 252 236 156 147 165 159 202 192 241 147 175 197 228 235 253 257 234 224 208 305 298 196 272 314 61 47 230
6 5 4 1 359 357 353 349 345 342 335 315 285 239 208 192 160 132 157 240 268 327 293 177 146 164 199 197 208 168 190 220 235 235 274 271 210 187 187 191 224 225 196 166 232 197 242
8 7 5 4 2 0 357 353 351 348 344 323 272 218 216 180 181 157 277 215 236 20 294 149 153 168 210 221 159 176 205 218 203 74 55 10 7 109 152 182 176 308 350 248 354 299 51
9 8 7 5 5 3 1 358 356 352 353 6 121 319 232 178 176 169 251 241 274 247 293 344 225 183 222 200 152 191 200 127 88 66 47 332 337 331 155 167 274 230 269 5 350 346 355
6 6 6 6 5 5 4 2 359 355 351 322 313 270 161 174 136 227 232 247 291 293 19 318 346 345 326 158 289 281 44 20 41 52 41 25 16 304 342 202 271 323 227 258 118 115 165
360 2 4 5 4 6 6 5 360 355 349 332 330 272 172 161 184 221 238 255 256 303 108 290 310 320 351 161 244 110 95 78 46 34 26 2 254 303 290 297 305 356 300 176 141 285 231
352 355 359 2 3 4 6 8 3 354 354 323 286 281 172 180 220 240 247 255 263 346 355 281 321 343 42 14 45 96 102 102 72 68 83 333 352 356 335 347 6 10 347 358 354 44 34
347 349 353 357 360 2 4 6 8 352 350 342 309 246 162 207 247 278 284 296 189 231 324 3 14 12 11 345 354 6 102 125 98 107 86 56 315 200 227 261 338 344 340 347 26 49 326
345 346 348 352 356 360 2 4 8 3 8 355 286 324 0 223 234 243 268 305 210 158 206 13 354 354 316 16 0 27 14 98 62 122 120 112 247 309 327 332 329 309 301 301 300 279 54
344 345 346 348 353 358 2 4 8 17 28 42 14 1 331 287 328 278 16 317 325 22 91 104 18 317 60 56 46 27 26 30 75 218 127 346 305 12 330 311 304 309 301 318 337 312 306
342 343 345 347 351 356 1 7 9 16 29 65 3 327 319 292 314 307 308 260 21 38 45 55 41 17 46 17 354 349 341 328 310 327 308 163 71 38 288 319 338 330 289 34 74 52 62
337 339 342 346 349 354 358 4 12 17 22 23 10 358 309 308 332 347 19 17 65 42 17 15 43 30 23 346 332 313 294 285 258 270 273 351 154 161 257 317 294 241 19 68 70 54 45
335 335 338 343 347 351 355 0 6 16 15 21 15 17 344 313 339 4 9 22 32 37 344 310 69 65 5 339 327 293 285 269 255 215 211 158 97 14 104 268 283 33 27 32 22 56 46
336 334 334 339 344 347 351 356 1 5 18 38 22 12 5 306 26 0 331 9 352 338 285 152 91 17 21 229 267 227 261 296 117 159 159 144 80 131 333 355 273 38 33 16 350 79 18
333 332 331 332 338 344 348 351 355 0 11 21 37 8 357 292 35 11 20 351 348 351 318 39 48 6 189 266 284 251 259 220 262 93 147 160 102 192 244 229 158 36 349 323 303 221 24
328 328 328 328 330 336 342 346 349 354 360 26 54 17 10 312 299 15 4 356 350 9 19 356 328 271 327 249 247 278 300 19 25 61 49 59 113 202 349 262 171 345 58 26 147 32 7
324 322 321 323 322 326 333 337 341 345 351 353 351 335 351 275 251 294 303 276 265 313 347 334 314 328 53 24 11 343 356 8 23 355 23 17 141 176 127 188 194 28 62 51 39 32 353
Wind_Speed_850mb
34 34 34 32 31 29 27 25 24 22 22 20 19 18 19 18 19 18 17 17 17 17 17 18 17 17 15 12 31 14 10 9 14 15 22 32 52 30 17 17 23 16 6 11 15 19 16
34 34 34 34 33 32 31 29 27 25 22 21 20 20 19 20 19 18 17 16 16 15 15 15 14 14 12 12 4 5 1 7 12 12 17 25 43 36 23 31 8 7 5 5 7 6 7
35 35 35 35 34 34 33 31 29 28 26 23 22 20 20 18 19 17 16 15 14 12 11 11 10 12 19 36 6 3 8 16 10 12 31 32 29 23 42 17 10 20 13 11 7 2 5
37 36 35 36 36 36 36 34 32 29 27 25 23 21 19 17 16 16 14 12 11 10 9 8 8 10 18 9 23 27 17 18 16 22 24 19 20 26 33 39 23 16 12 10 12 11 7
37 37 37 37 38 38 38 37 35 32 29 27 25 22 19 16 16 14 12 9 8 8 8 8 4 11 20 10 26 31 19 21 16 11 15 17 13 27 45 16 15 13 8 6 10 17 8
38 38 39 39 40 40 40 40 39 37 32 29 26 22 18 15 14 13 10 9 8 8 8 10 15 17 20 23 18 17 21 23 24 18 25 20 18 12 14 7 12 8 9 17 6 14 11
40 40 40 41 41 43 43 42 41 39 36 31 27 21 17 14 14 13 13 9 4 5 20 24 12 12 12 10 14 21 22 14 13 21 10 32 8 16 28 21 4 12 9 10 11 10 9
42 41 41 42 43 44 45 45 43 41 38 33 26 21 16 15 15 16 19 14 7 22 19 36 24 36 28 12 15 18 22 19 23 16 22 11 21 29 25 13 12 12 13 14 15 6 8
42 42 42 43 44 46 47 47 46 42 40 33 23 19 12 12 13 16 23 30 7 19 9 24 54 35 19 15 29 38 37 28 21 16 20 17 22 18 7 17 13 12 15 13 14 7 13
43 42 42 44 46 48 49 48 48 44 41 31 20 15 8 11 10 9 16 4 4 10 7 8 18 19 34 22 19 31 37 26 16 20 18 16 24 12 10 5 10 17 14 10 3 5 9
43 43 43 45 49 51 51 50 49 45 40 25 18 11 10 22 9 18 10 10 4 8 6 27 23 16 29 26 9 29 31 18 20 21 8 23 14 10 6 12 13 18 12 9 6 13 12
43 43 44 47 51 53 54 53 50 47 34 20 15 10 15 27 13 9 10 6 9 2 12 20 17 15 13 27 29 24 12 16 28 17 23 16 26 7 12 15 8 11 12 15 8 12 11
43 44 46 48 52 55 57 55 51 45 26 18 11 10 20 32 19 12 3 9 3 8 19 24 15 19 18 19 24 17 13 14 13 7 15 20 23 15 10 6 17 9 6 6 9 7 15
46 46 47 49 53 57 60 58 54 37 22 11 11 11 24 39 18 15 9 2 7 22 13 19 22 22 21 22 18 17 17 16 23 21 12 8 10 21 16 13 14 16 15 9 2 9 14
48 48 49 51 55 58 62 61 55 31 17 9 4 8 20 36 15 12 6 6 7 10 26 16 30 21 20 19 14 16 22 22 20 6 9 14 8 14 13 3 6 12 6 11 4 8 10
50 51 51 52 55 59 64 65 53 29 13 3 5 4 10 24 19 12 5 8 10 16 22 26 5 18 10 7 12 14 15 4 13 14 13 14 12 12 16 5 9 8 7 13 9 5 9
51 52 53 54 57 60 64 66 53 30 13 6 11 7 22 23 20 12 7 12 22 50 14 14 23 16 21 13 20 4 16 25 18 16 18 17 11 20 13 6 8 9 6 5 4 6 3
50 52 54 56 57 60 63 65 58 34 16 10 9 6 28 33 16 12 11 12 10 17 6 9 12 12 17 30 19 2 13 11 25 29 8 10 4 11 20 24 15 13 8 13 10 13 5
48 50 52 55 58 59 62 62 60 39 23 12 9 15 24 31 7 14 23 34 30 11 11 8 9 13 15 16 10 21 12 20 19 10 6 11 7 9 22 16 24 14 18 16 12 8 5
47 48 49 52 56 58 60 60 58 39 29 15 7 3 17 31 36 24 26 25 9 9 13 20 12 19 15 13 4 2 10 10 30 20 13 4 3 8 11 15 10 18 23 19 10 7 7
46 47 47 49 51 55 57 59 56 34 19 19 4 9 19 8 16 23 29 17 10 10 12 14 15 8 15 11 17 15 20 17 21 17 8 5 3 9 16 20 16 19 23 19 11 11 4
46 45 46 45 46 49 52 56 56 45 25 25 18 15 21 23 36 3 9 10 19 20 8 12 13 17 16 15 14 17 15 17 8 13 7 7 6 15 14 21 21 18 18 13 11 11 10
45 44 43 42 42 43 45 47 53 50 33 16 39 14 13 23 20 8 11 6 14 21 19 21 21 14 23 19 28 23 17 20 18 10 5 4 4 8 9 16 20 14 9 13 14 16 14
44 42 40 40 38 39 39 39 41 46 39 30 39 15 12 9 17 12 17 25 26 20 10 23 14 11 12 21 24 21 24 27 26 23 15 1 2 6 9 11 8 5 26 16 14 25 22
44 41 37 36 36 35 34 34 32 32 31 23 37 22 13 8 31 27 33 26 23 12 8 12 15 16 16 17 6 7 7 8 16 18 13 6 5 3 3 6 15 9 15 14 12 14 19
43 40 36 34 33 31 30 29 29 29 29 11 24 39 7 15 14 25 26 32 8 11 8 13 16 13 3 3 4 7 6 10 3 12 15 8 9 9 1 2 5 8 19 28 21 3 20
41 38 36 33 32 29 27 26 26 25 23 17 23 40 14 10 23 26 16 13 13 17 7 15 5 2 11 2 5 7 10 4 4 4 6 5 1 6 4 8 1 10 20 20 3 5 18
40 37 34 32 29 26 25 24 24 23 21 15 16 24 34 14 20 14 16 20 20 17 7 14 11 4 6 2 4 7 5 5 7 8 5 3 2 4 3 4 1 17 11 5 5 19 22
39 36 33 31 27 25 23 22 23 22 20 18 16 14 21 14 21 19 13 16 10 5 14 20 12 10 8 6 9 8 7 10 12 5 9 3 6 6 8 6 1 21 30 18 12 17 24
Wind_Direction_850mb
22 21 18 16 10 6 2 357 348 340 329 319 309 299 295 288 283 281 280 280 280 283 286 287 289 289 291 293 267 257 284 275 262 277 286 309 308 340 357 352 97 89 148 189 187 187 145
18 17 15 12 10 6 1 357 350 343 335 325 316 307 296 287 282 279 277 275 275 278 281 281 283 283 278 256 160 257 300 312 244 279 279 296 305 327 316 332 31 112 281 118 26 9 117
14 13 11 9 6 4 1 355 349 342 336 327 319 310 300 290 281 276 272 269 269 270 271 270 273 271 253 236 154 238 281 257 260 228 270 304 354 332 318 315 41 268 191 236 132 149 110
10 9 7 4 2 0 359 356 350 343 335 329 321 310 300 291 280 271 266 261 260 259 255 250 254 275 255 266 223 244 236 237 246 254 268 302 336 315 298 296 298 259 283 167 176 211 161
7 5 3 1 359 357 355 353 350 344 336 328 320 310 299 285 273 264 257 248 240 233 228 222 213 275 269 252 220 219 211 224 207 239 258 274 316 283 284 279 286 253 231 281 154 170 184
4 2 359 357 355 353 352 350 349 344 338 330 321 309 297 278 263 252 237 221 220 210 211 232 212 289 239 242 217 184 194 225 234 216 229 227 239 239 276 257 252 45 100 253 121 199 124
0 359 357 354 352 350 348 348 347 343 338 331 321 309 294 271 250 235 219 190 235 228 216 208 260 237 118 104 147 183 191 215 246 257 240 222 197 242 250 252 286 32 339 321 297 182 144
358 357 355 352 351 348 346 345 345 342 337 331 321 310 290 258 237 225 217 214 8 339 283 253 232 257 283 157 177 195 191 209 221 241 238 272 222 242 256 301 52 35 315 294 275 201 156
356 355 354 352 350 347 345 343 342 341 336 329 320 312 284 240 227 232 235 215 351 22 277 261 222 231 222 225 247 191 185 213 252 245 249 227 251 249 19 330 360 285 229 254 258 354 326
355 355 354 353 350 348 346 343 341 340 334 326 318 306 262 196 186 212 261 60 347 22 308 176 193 232 221 212 249 239 182 201 234 244 267 241 269 263 179 219 235 266 272 205 315 32 262
356 356 356 354 352 350 347 344 341 338 332 321 313 288 221 178 178 170 32 7 339 261 306 142 181 218 183 188 134 154 178 198 257 277 276 265 246 241 287 266 254 245 356 2 321 301 334
360 359 359 356 354 352 348 345 341 337 330 318 302 264 208 188 191 95 125 348 180 274 243 168 140 177 168 219 253 141 166 226 265 275 290 251 277 287 215 248 211 292 319 314 329 39 335
4 3 1 358 357 354 350 346 342 338 330 316 288 248 206 184 155 202 293 256 252 236 156 147 165 159 202 192 241 147 175 197 228 235 253 257 234 224 208 305 298 196 272 314 61 47 230
6 5 4 1 359 357 353 349 345 342 335 315 285 239 208 192 160 132 157 240 268 327 293 177 146 164 199 197 208 168 190 220 235 235 274 271 210 187 187 191 224 225 196 166 232 197 242
8 7 5 4 2 0 357 353 351 348 344 323 272 218 216 180 181 157 277 215 236 20 294 149 153 168 210 221 159 176 205 218 203 74 55 10 7 109 152 182 176 308 350 248 354 299 51
9 8 7 5 5 3 1 358 356 352 353 6 121 319 232 178 176 169 251 241 274 247 293 344 225 183 222 200 152 191 200 127 88 66 47 332 337 331 155 167 274 230 269 5 350 346 355
6 6 6 6 5 5 4 2 359 355 351 322 313 270 161 174 136 227 232 247 291 293 19 318 346 345 326 158 289 281 44 20 41 52 41 25 16 304 342 202 271 323 227 258 118 115 165
360 2 4 5 4 6 6 5 360 355 349 332 330 272 172 161 184 221 238 255 256 303 108 290 310 320 351 161 244 110 95 78 46 34 26 2 254 303 290 297 305 356 300 176 141 285 231
352 355 359 2 3 4 6 8 3 354 354 323 286 281 172 180 220 240 247 255 263 346 355 281 321 343 42 14 45 96 102 102 72 68 83 333 352 356 335 347 6 10 347 358 354 44 34
347 349 353 357 360 2 4 6 8 352 350 342 309 246 162 207 247 278 284 296 189 231 324 3 14 12 11 345 354 6 102 125 98 107 86 56 315 200 227 261 338 344 340 347 26 49 326
345 346 348 352 356 360 2 4 8 3 8 355 286 324 0 223 234 243 268 305 210 158 206 13 354 354 316 16 0 27 14 98 62 122 120 112 247 309 327 332 329 309 301 301 300 279 54
344 345 346 348 353 358 2 4 8 17 28 42 14 1 331 287 328 278 16 317 325 22 91 104 18 317 60 56 46 27 26 30 75 218 127 346 305 12 330 311 304 309 301 318 337 312 306
342 343 345 347 351 356 1 7 9 16 29 65 3 327 319 292 314 307 308 260 21 38 45 55 41 17 46 17 354 349 341 328 310 327 308 163 71 38 288 319 338 330 289 34 74 52 62
337 339 342 346 349 354 358 4 12 17 22 23 10 358 309 308 332 347 19 17 65 42 17 15 43 30 23 346 332 313 294 285 258 270 273 351 154 161 257 317 294 241 19 68 70 54 45
335 335 338 343 347 351 355 0 6 16 15 21 15 17 344 313 339 4 9 22 32 37 344 310 69 65 5 339 327 293 285 269 255 215 211 158 97 14 104 268 283 33 27 32 22 56 46
336 334 334 339 344 347 351 356 1 5 18 38 22 12 5 306 26 0 331 9 352 338 285 152 91 17 21 229 267 227 261 296 117 159 159 144 80 131 333 355 273 38 33 16 350 79 18
333 332 331 332 338 344 348 351 355 0 11 21 37 8 357 292 35 11 20 351 348 351 318 39 48 6 189 266 284 251 259 220 262 93 147 160 102 192 244 229 158 36 349 323 303 221 24
328 328 328 328 330 336 342 346 349 354 360 26 54 17 10 312 299 15 4 356 350 9 19 356 328 271 327 249 247 278 300 19 25 61 49 59 113 202 349 262 171 345 58 26 147 32 7
324 322 321 323 322 326 333 337 341 345 351 353 351 335 351 275 251 294 303 276 265 313 347 334 314 328 53 24 11 343 356 8 23 355 23 17 141 176 127 188 194 28 62 51 39 32 353